Regional Weather Roundup
Issued by NWS

Home | Current Version | Previous Version | Graphics & Text | Print | Product List | Glossary On
Versions: 1 2 3 4 5 6 7 8 9 10 11 12 13 14 15 16 17 18 19 20 21 22 23 24 25 26 27 28 29 30 31 32 33 34 35 36 37 38 39 40 41 42 43 44 45 46 47 48 49 50
219
ASUS43 KDTX 291510
RWRMI
MICHIGAN HOURLY REGIONAL WEATHER ROUNDUP
NATIONAL WEATHER SERVICE DETROIT/PONTIAC MI
ISSUED BY NATIONAL WEATHER SERVICE GRAND RAPIDS MI
1100 AM EDT THU JUN 29 2017

NOTE: "FAIR" INDICATES FEW OR NO CLOUDS BELOW 12,000 FEET WITH NO
SIGNIFICANT WEATHER AND/OR OBSTRUCTION TO VISIBILITY.

MIZ047>049-052>055-059>063-066>070-074>076-081>083-291600-
SOUTHEAST LOWER MICHIGAN

CITY           SKY/WX    TMP DP  RH WIND       PRES   REMARKS
ADRIAN         PTSUNNY   79  64  60 SW17G29   29.86F
ALMA           PTSUNNY   76  66  71 SW16G24   29.76S
ANN ARBOR      CLOUDY    73  64  73 SW10      29.83F
BAD AXE        CLOUDY    74  64  72 SW12G20   29.76F
DETROIT CITY   CLOUDY    74  62  66 SW15G23   29.83F
DETROIT        CLOUDY    75  62  64 SW16      29.84S
FLINT          CLOUDY    71  62  73 SW10      29.80R
GROSSE ILE     CLOUDY    77  63  61 SW16G24   29.84R
HILLSDALE      CLOUDY    75  63  64 SW9G18    29.85S
HOWELL         CLOUDY    73  61  66 SW8       29.81F

CITY           SKY/WX    TMP DP  RH WIND       PRES   REMARKS
JACKSON        CLOUDY    79  64  60 SW21G31   29.83S
LANSING        MOSUNNY   80  64  58 SW18G25   29.79F
MASON          MOSUNNY   77  65  67 SW12G20   29.81S
MONROE         CLOUDY    78  64  61 SW18G25   29.84S
MT. CLEMENS    LGT RAIN  73  64  73 SW16G30   29.81R
PONTIAC        CLOUDY    72  62  71 SW15G25   29.81S
PORT HOPE        N/A     73  64  73 VRB6      29.74F
PORT HURON     CLOUDY    70  61  73 S7        29.82S
TRI CITIES     PTSUNNY   75  67  76 SW21G28   29.75S
YPSILANTI      CLOUDY    75  63  66 SW14      29.84S
$$
MIZ043>046-050>051-056>058-064>065-071>073-077>080-291600-
SOUTHWEST LOWER MICHIGAN

CITY           SKY/WX    TMP DP  RH WIND       PRES   REMARKS
BATTLE CREEK   CLOUDY    79  65  62 SW17G28   29.82R
BENTON HARBOR  MOSUNNY   79  60  52 SW17G25   29.79S
BIG RAPIDS     CLOUDY    71  64  78 SW15      29.73R
COLDWATER      CLOUDY    77  64  64 SW14G26   29.84S
HOLLAND        CLOUDY    75  63  66 SW17G26   29.77S
GRAND RAPIDS   CLOUDY    75  66  73 SW18      29.77R
KALAMAZOO      CLOUDY    80  63  55 SW16G28   29.80F
MARSHALL       PTSUNNY   80  65  60 SW15G24   29.82S
MOUNT PLEASANT CLOUDY    74  64  69 SW15G22   29.74R
MUSKEGON       CLOUDY    73  63  70 SW18G28   29.75R
STURGIS        CLOUDY    76  66  70 W13G22    29.83S
$$
MIZ016>042-291600-
NORTHERN LOWER MICHIGAN

CITY           SKY/WX    TMP DP  RH WIND       PRES   REMARKS
ALPENA         CLOUDY    69  66  90 S8        29.71S
BEAVER ISLAND  CLOUDY    67  62  85 SW15G23   29.65S
BELLAIRE       MOSUNNY   73  65  76 SW5       29.67S
CADILLAC       CLOUDY    70  66  88 SW8       29.70F
CHARLEVOIX     CLOUDY    71  66  83 S7        29.69S
GAYLORD        CLOUDY    72  64  76 SW13G24   29.71R
HOUGHTON LAKE  CLOUDY    71  65  81 SW8       29.73S
MANISTEE       MOSUNNY   73  66  78 SW10G18   29.68S
OSCODA         CLOUDY    71  65  83 S14G20    29.73S
PELLSTON       CLOUDY    70  63  78 SW9       29.68R
TRAVERSE CITY  MOSUNNY   75  65  70 SW10G21   29.65S
LUDINGTON      MOSUNNY   70  65  85 SW14      29.70R
$$
MIZ007>008-015-291600-
EASTERN UPPER MICHIGAN

CITY           SKY/WX    TMP DP  RH WIND       PRES   REMARKS
KINROSS        CLOUDY    61  61 100 SE9       29.68S FOG
MACKINAC ISLAN CLOUDY    63  63 100 SE6       29.67R
NEWBERRY       FOG       61  60  97 S8        29.64R VSB 1
S. S. MARIE    LGT RAIN  62  60  93 E6        29.68S FOG
$$
MIZ004>006-011>014-085-291600-
CENTRAL UPPER MICHIGAN

CITY           SKY/WX    TMP DP  RH WIND       PRES   REMARKS
MANISTIQUE     FOG       57  54  89 S6        29.62F VSB 1/4
ESCANABA       CLOUDY    69  64  84 S8        29.58F
MENOMINEE      CLOUDY    72  63  73 SW7       29.60F
SAWYER-GWINN   CLOUDY    66  63  88 S8        29.59F
$$
MIZ001>003-009>011-084-291600-
WESTERN UPPER MICHIGAN

CITY           SKY/WX    TMP DP  RH WIND       PRES   REMARKS
IRON MOUNTAIN  CLOUDY    68  61  78 W12G22    29.58F
HOUGHTON       CLOUDY    57  55  93 NW13      29.58R
COPPER HARBOR    N/A     54  54 100 SE6       29.57R
IRONWOOD       CLOUDY    58  55  90 W17G24    29.61S
$$

ABBREVIATIONS USED IN REMARKS
   TC - TEMPERATURE IN CELSIUS
  WCI - WIND CHILL INDEX
   HX - HEAT INDEX
  VSB - VISIBILITY





USA.gov is the U.S. government's official web portal to all federal, state and local government web resources and services.